FW8937 Weather Reports


Display with metric or nautical units.
time (UTC)temp
F
wind
direction
speed
MPH
gust
MPH
rain 1hr
in
rain 24hr
in
rain mn
in
humidity
%
barometer
mb
20210618091943 67 256 12.0 18.0 0.00 0.00 0.00 26 1025.9
20210618091443 67 252 12.0 17.0 0.00 0.00 0.00 26 1025.9
20210618090940 67 277 12.0 17.0 0.00 0.00 0.00 26 1025.9
20210618090440 66 273 11.0 17.0 0.00 0.00 0.00 26 1025.9
20210618085942 66 230 11.0 18.0 0.00 0.00 0.00 26 1025.9
20210618085440 66 255 12.0 18.0 0.00 0.00 0.00 26 1026.0
20210618084939 66 217 11.0 17.0 0.00 0.00 0.00 26 1026.0
20210618084439 66 261 10.0 17.0 0.00 0.00 0.00 26 1026.0
20210618083939 66 234 10.0 17.0 0.00 0.00 0.00 26 1026.0
20210618083439 67 283 11.0 15.0 0.00 0.00 0.00 25 1026.0
20210618082941 67 273 11.0 15.0 0.00 0.00 0.00 26 1026.1
20210618082441 67 259 11.0 16.0 0.00 0.00 0.00 26 1026.0
20210618081942 67 273 11.0 16.0 0.00 0.00 0.00 25 1026.0
20210618081441 67 265 11.0 15.0 0.00 0.00 0.00 25 1026.0
20210618080939 67 279 11.0 15.0 0.00 0.00 0.00 25 1026.1
20210618080441 68 263 11.0 14.0 0.00 0.00 0.00 24 1026.1
20210618075940 68 275 11.0 17.0 0.00 0.00 0.00 24 1026.1
20210618075443 68 256 11.0 17.0 0.00 0.00 0.00 24 1026.1
20210618074940 68 239 11.0 17.0 0.00 0.00 0.00 24 1026.0
20210618074439 68 283 10.0 17.0 0.00 0.00 0.00 25 1026.1
20210618073935 67 264 10.0 15.0 0.00 0.00 0.00 25 1026.0
20210618073428 67 283 11.0 17.0 0.00 0.00 0.00 25 1026.0
20210618072923 67 294 11.0 17.0 0.00 0.00 0.00 26 1026.0
20210618072417 67 252 11.0 16.0 0.00 0.00 0.00 26 1026.0
20210618071910 67 285 11.0 16.0 0.00 0.00 0.00 26 1026.0
20210618071404 67 288 12.0 16.0 0.00 0.00 0.00 26 1026.0
20210618070858 67 289 12.0 16.0 0.00 0.00 0.00 26 1026.0
20210618070352 67 276 12.0 18.0 0.00 0.00 0.00 26 1026.1
20210618065846 67 284 13.0 18.0 0.00 0.00 0.00 26 1026.0
20210618065342 68 270 12.0 17.0 0.00 0.00 0.00 25 1026.0
20210618064834 68 244 11.0 16.0 0.00 0.00 0.00 25 1026.0
20210618064329 69 279 10.0 15.0 0.00 0.00 0.00 24 1026.0
20210618063822 69 264 10.0 15.0 0.00 0.00 0.00 24 1026.1
20210618063316 68 292 10.0 13.0 0.00 0.00 0.00 24 1026.1
20210618062811 67 257 9.0 13.0 0.00 0.00 0.00 25 1026.1
20210618062307 67 256 7.0 10.0 0.00 0.00 0.00 26 1026.1
20210618061753 67 250 7.0 9.0 0.00 0.00 0.00 26 1026.1
20210618061246 68 277 7.0 12.0 0.00 0.00 0.00 25 1026.1
20210618060741 67 241 8.0 12.0 0.00 0.00 0.00 27 1026.1
20210618060234 67 284 9.0 12.0 0.00 0.00 0.00 28 1026.3
20210618055728 67 287 9.0 11.0 0.00 0.00 0.00 27 1026.1
20210618055222 67 281 8.0 11.0 0.00 0.00 0.00 28 1026.3
20210618054716 66 294 8.0 12.0 0.00 0.00 0.00 28 1026.3
20210618054210 66 263 6.0 12.0 0.00 0.00 0.00 29 1026.3
20210618053704 68 294 4.0 9.0 0.00 0.00 0.00 28 1026.4
20210618053158 68 355 6.0 14.0 0.00 0.00 0.00 27 1026.3
20210618052652 68 240 7.0 14.0 0.00 0.00 0.00 27 1026.1
20210618052146 69 121 9.0 16.0 0.00 0.00 0.00 26 1026.1
20210618051641 68 237 7.0 16.0 0.00 0.00 0.00 28 1026.3
20210618051134 67 239 3.0 11.0 0.00 0.00 0.00 29 1026.4
20210618050628 68 261 3.0 8.0 0.00 0.00 0.00 28 1026.4
20210618050122 69 267 6.0 11.0 0.00 0.00 0.00 28 1026.4
20210618045616 69 290 7.0 12.0 0.00 0.00 0.00 26 1026.5
20210618045110 68 248 6.0 12.0 0.00 0.00 0.00 27 1026.7
20210618044605 68 292 5.0 11.0 0.00 0.00 0.00 27 1026.7
20210618044100 67 255 3.0 8.0 0.00 0.00 0.00 28 1026.5
20210618043552 68 289 2.0 7.0 0.00 0.00 0.00 28 1026.5
20210618043047 68 270 2.0 7.0 0.00 0.00 0.00 27 1026.4
20210618042540 68 313 4.0 7.0 0.00 0.00 0.00 28 1026.7
20210618042034 68 271 5.0 8.0 0.00 0.00 0.00 28 1026.5
20210618041528 67 259 5.0 10.0 0.00 0.00 0.00 29 1026.4
20210618041021 65 242 5.0 10.0 0.00 0.00 0.00 30 1026.4
20210618040517 65 254 5.0 8.0 0.00 0.00 0.00 31 1026.5
20210618040010 64 242 6.0 8.0 0.00 0.00 0.00 33 1026.5
20210618035505 64 236 6.0 8.0 0.00 0.00 0.00 33 1026.5
20210618034959 64 216 6.0 9.0 0.00 0.00 0.00 33 1026.4
20210618034453 66 226 6.0 10.0 0.00 0.00 0.00 31 1026.4
20210618033946 67 217 7.0 11.0 0.00 0.00 0.00 30 1026.4
20210618033441 66 214 7.0 11.0 0.00 0.00 0.00 30 1026.4
20210618032945 65 224 7.0 10.0 0.00 0.00 0.00 31 1026.4
20210618032428 65 229 6.0 10.0 0.00 0.00 0.00 31 1026.4
20210618031922 66 224 7.0 10.0 0.00 0.00 0.00 30 1026.4
20210618031416 65 239 6.0 9.0 0.00 0.00 0.00 31 1026.4
20210618030910 66 217 5.0 7.0 0.00 0.00 0.00 31 1026.4
20210618030405 67 222 5.0 8.0 0.00 0.00 0.00 30 1026.4
20210618025859 68 226 5.0 8.0 0.00 0.00 0.00 29 1026.3
20210618025353 68 180 6.0 10.0 0.00 0.00 0.00 29 1026.3
20210618024846 68 187 7.0 13.0 0.00 0.00 0.00 29 1026.3
20210618024341 68 223 9.0 13.0 0.00 0.00 0.00 30 1026.3
20210618023834 67 190 8.0 15.0 0.00 0.00 0.00 30 1026.1
20210618023328 67 161 6.0 15.0 0.00 0.00 0.00 31 1026.0
20210618022823 68 161 5.0 8.0 0.00 0.00 0.00 30 1026.3
20210618022316 69 185 4.0 8.0 0.00 0.00 0.00 33 1026.4
20210618021810 70 209 4.0 8.0 0.00 0.00 0.00 28 1026.4
20210618021304 70 215 6.0 9.0 0.00 0.00 0.00 27 1026.3
20210618020758 71 213 7.0 11.0 0.00 0.00 0.00 28 1026.3
20210618020252 71 189 6.0 11.0 0.00 0.00 0.00 27 1026.3
20210618015746 71 223 4.0 8.0 0.00 0.00 0.00 28 1026.4
20210618015240 71 215 6.0 9.0 0.00 0.00 0.00 27 1026.4
20210618014735 70 225 7.0 10.0 0.00 0.00 0.00 28 1026.7
20210618014228 70 217 5.0 10.0 0.00 0.00 0.00 29 1026.5
20210618013729 70 217 5.0 7.0 0.00 0.00 0.00 28 1026.5
20210618013224 70 205 4.0 7.0 0.00 0.00 0.00 29 1026.4
20210618012726 71 181 1.0 5.0 0.00 0.00 0.00 27 1026.5
20210618012225 71 72 1.0 7.0 0.00 0.00 0.00 27 1026.5
20210618011726 71 62 4.0 11.0 0.00 0.00 0.00 27 1026.8
20210618011226 71 62 5.0 14.0 0.00 0.00 0.00 26 1026.8
20210618010726 71 22 7.0 17.0 0.00 0.00 0.00 26 1026.8
20210618010225 72 63 6.0 17.0 0.00 0.00 0.00 26 1026.9
20210618005725 73 69 5.0 16.0 0.00 0.00 0.00 23 1026.9
20210618005226 73 171 12.0 35.0 0.00 0.00 0.00 26 1027.0
20210618004730 72 0 15.0 35.0 0.00 0.00 0.00 24 1027.0
20210618004226 72 289 14.0 21.0 0.00 0.00 0.00 27 1026.9
20210618003725 72 233 13.0 20.0 0.00 0.00 0.00 26 1026.7
20210618003226 73 221 11.0 20.0 0.00 0.00 0.00 25 1026.4
20210618002725 73 269 11.0 24.0 0.00 0.00 0.00 25 1026.3
20210618002226 73 206 11.0 24.0 0.00 0.00 0.00 24 1026.0
20210618001725 74 192 10.0 20.0 0.00 0.00 0.00 24 1025.6
20210618001225 74 198 12.0 21.0 0.00 0.00 0.00 23 1025.6
20210618000726 74 171 14.0 25.0 0.00 0.00 0.00 23 1026.0
20210618000225 75 176 15.0 25.0 0.00 0.00 0.00 23 1026.0
20210617235725 74 207 14.0 24.0 0.00 0.00 0.00 24 1026.4
20210617235225 74 188 13.0 22.0 0.00 0.00 0.00 23 1026.5
20210617234725 74 201 12.0 19.0 0.00 0.00 0.00 23 1026.5
20210617234224 74 213 9.0 23.0 0.00 0.00 0.00 23 1026.7
20210617233721 75 217 9.0 23.0 0.00 0.00 0.00 23 1026.7
20210617233221 75 206 13.0 23.0 0.00 0.00 0.00 23 1026.3
20210617232716 76 229 12.0 23.0 0.00 0.00 0.00 21 1026.3
20210617232216 76 199 11.0 23.0 0.00 0.00 0.00 24 1026.3
20210617231716 76 243 12.0 23.0 0.00 0.00 0.00 22 1026.0
20210617231216 76 221 11.0 24.0 0.00 0.00 0.00 22 1026.0
20210617230716 76 187 12.0 24.0 0.00 0.00 0.00 21 1026.3
20210617230217 77 183 9.0 20.0 0.00 0.00 0.00 21 1026.3
20210617225715 77 161 8.0 16.0 0.00 0.00 0.00 21 1026.3
20210617225214 77 191 8.0 14.0 0.00 0.00 0.00 21 1026.3
20210617224709 77 145 9.0 17.0 0.00 0.00 0.00 20 1026.3
20210617224208 78 164 9.0 17.0 0.00 0.00 0.00 20 1026.1
20210617223657 79 175 8.0 16.0 0.00 0.00 0.00 20 1026.3
20210617223157 79 157 9.0 19.0 0.00 0.00 0.00 20 1026.3
20210617222645 80 200 9.0 19.0 0.00 0.00 0.00 20 1026.3
20210617222139 80 196 8.0 14.0 0.00 0.00 0.00 22 1026.4
20210617221634 80 136 8.0 15.0 0.00 0.00 0.00 19 1026.5
20210617221126 78 152 8.0 15.0 0.00 0.00 0.00 18 1026.8
20210617220621 79 154 8.0 15.0 0.00 0.00 0.00 19 1026.7
20210617220115 80 125 7.0 13.0 0.00 0.00 0.00 20 1026.8
20210617215611 80 105 7.0 12.0 0.00 0.00 0.00 20 1026.8
20210617215103 79 128 6.0 12.0 0.00 0.00 0.00 19 1026.9
20210617214558 77 157 5.0 12.0 0.00 0.00 0.00 19 1026.9
20210617214051 77 168 4.0 8.0 0.00 0.00 0.00 23 1026.9
20210617213546 77 207 3.0 7.0 0.00 0.00 0.00 23 1027.0
20210617213039 77 144 3.0 5.0 0.00 0.00 0.00 23 1027.0
20210617212533 77 127 3.0 6.0 0.00 0.00 0.00 23 1027.0
20210617212027 77 103 3.0 7.0 0.00 0.00 0.00 21 1027.2
20210617211520 77 132 3.0 7.0 0.00 0.00 0.00 23 1027.2
20210617211015 77 113 3.0 8.0 0.00 0.00 0.00 23 1027.2
20210617210508 77 155 4.0 8.0 0.00 0.00 0.00 20 1027.2
20210617210004 77 129 6.0 12.0 0.00 0.00 0.00 21 1027.2
20210617205457 78 181 7.0 12.0 0.00 0.00 0.00 19 1027.0
20210617204951 79 177 5.0 11.0 0.00 0.00 0.00 21 1027.0
20210617204445 80 119 6.0 12.0 0.00 0.00 0.00 21 1027.2
20210617203938 79 143 5.0 12.0 0.00 0.00 0.00 19 1027.2
20210617203437 79 137 5.0 10.0 0.00 0.00 0.00 22 1027.3
20210617202926 79 107 7.0 11.0 0.00 0.00 0.00 20 1027.4
20210617202420 78 117 6.0 12.0 0.00 0.00 0.00 20 1027.4
20210617201920 77 117 5.0 12.0 0.00 0.00 0.00 20 1027.4
20210617201418 78 126 6.0 11.0 0.00 0.00 0.00 20 1027.4
20210617200917 78 107 6.0 11.0 0.00 0.00 0.00 21 1027.4
20210617200415 78 128 4.0 9.0 0.00 0.00 0.00 20 1027.6
20210617195917 78 109 4.0 9.0 0.00 0.00 0.00 19 1027.6
20210617195411 78 93 4.0 9.0 0.00 0.00 0.00 20 1027.7
20210617194911 78 96 5.0 10.0 0.00 0.00 0.00 20 1027.7
20210617194411 78 153 5.0 11.0 0.00 0.00 0.00 20 1027.7
20210617193911 78 100 6.0 12.0 0.00 0.00 0.00 21 1027.7
20210617193411 78 137 6.0 12.0 0.00 0.00 0.00 19 1027.7
20210617192910 78 128 7.0 12.0 0.00 0.00 0.00 19 1027.7
20210617192410 78 141 8.0 14.0 0.00 0.00 0.00 20 1027.8
20210617192141 79 142 7.0 14.0 0.00 0.00 0.00 19 1028.0
20210617191919 79 142 7.0 14.0 0.00 0.00 0.00 19 1028.0
20210617191410 79 134 6.0 11.0 0.00 0.00 0.00 20 1028.0
20210617190909 79 156 4.0 8.0 0.00 0.00 0.00 19 1028.1
20210617190410 79 99 4.0 9.0 0.00 0.00 0.00 19 1028.2
20210617185914 80 90 4.0 9.0 0.00 0.00 0.00 17 1028.3
20210617185408 80 346 4.0 13.0 0.00 0.00 0.00 15 1028.3
20210617184915 80 234 7.0 16.0 0.00 0.00 0.00 15 1028.2
20210617184403 81 294 8.0 16.0 0.00 0.00 0.00 14 1028.2
20210617183904 81 328 5.0 16.0 0.00 0.00 0.00 15 1028.1
20210617183409 82 244 6.0 15.0 0.00 0.00 0.00 15 1028.1
20210617182905 82 313 7.0 15.0 0.00 0.00 0.00 14 1028.2
20210617182403 81 30 6.0 15.0 0.00 0.00 0.00 15 1028.1
20210617181909 82 344 8.0 20.0 0.00 0.00 0.00 15 1028.1
20210617181408 85 286 10.0 20.0 0.00 0.00 0.00 13 1028.1
20210617181138 86 321 8.0 18.0 0.00 0.00 0.00 13 1028.1
20210617180407 85 264 7.0 18.0 0.00 0.00 0.00 14 1028.2
20210617175904 85 319 7.0 18.0 0.00 0.00 0.00 13 1028.3
20210617175418 86 331 7.0 13.0 0.00 0.00 0.00 14 1028.5
20210617174904 85 302 6.0 13.0 0.00 0.00 0.00 14 1028.5
20210617174403 85 327 5.0 13.0 0.00 0.00 0.00 14 1028.6
20210617173904 84 234 6.0 12.0 0.00 0.00 0.00 12 1028.7
20210617173404 85 15 7.0 16.0 0.00 0.00 0.00 11 1028.7
20210617172904 85 340 8.0 17.0 0.00 0.00 0.00 13 1028.9
20210617172403 85 232 8.0 17.0 0.00 0.00 0.00 12 1028.7
20210617171857 84 295 9.0 16.0 0.00 0.00 0.00 14 1028.7
20210617171352 84 264 8.0 16.0 0.00 0.00 0.00 12 1028.7
20210617170846 85 309 7.0 15.0 0.00 0.00 0.00 12 1028.7
20210617170340 84 301 6.0 13.0 0.00 0.00 0.00 12 1028.6
20210617165834 83 264 6.0 16.0 0.00 0.00 0.00 14 1028.6
20210617165328 83 271 8.0 17.0 0.00 0.00 0.00 13 1028.7
20210617164822 82 245 7.0 17.0 0.00 0.00 0.00 15 1028.7
20210617164316 82 270 7.0 15.0 0.00 0.00 0.00 13 1028.9
20210617163810 83 239 9.0 16.0 0.00 0.00 0.00 16 1028.9
20210617163304 83 238 8.0 16.0 0.00 0.00 0.00 15 1028.7
20210617162801 82 275 8.0 19.0 0.00 0.00 0.00 14 1028.9
20210617162251 81 355 10.0 19.0 0.00 0.00 0.00 14 1028.9
20210617161745 81 263 11.0 17.0 0.00 0.00 0.00 14 1028.9
20210617161238 80 281 11.0 19.0 0.00 0.00 0.00 17 1029.0
20210617160731 79 244 10.0 17.0 0.00 0.00 0.00 13 1028.9
20210617160225 79 267 9.0 16.0 0.00 0.00 0.00 16 1029.0
20210617155719 79 298 9.0 16.0 0.00 0.00 0.00 15 1029.0
20210617155214 80 275 9.0 17.0 0.00 0.00 0.00 15 1029.0
20210617154707 80 279 10.0 17.0 0.00 0.00 0.00 16 1029.0
20210617154203 79 290 10.0 17.0 0.00 0.00 0.00 17 1029.1
20210617153657 79 265 10.0 15.0 0.00 0.00 0.00 20 1029.0
20210617153150 79 269 8.0 15.0 0.00 0.00 0.00 16 1029.1
20210617152644 79 245 7.0 16.0 0.00 0.00 0.00 21 1029.3
20210617152138 78 284 7.0 16.0 0.00 0.00 0.00 21 1029.3
20210617151632 78 255 7.0 16.0 0.00 0.00 0.00 19 1029.3
20210617151126 77 299 8.0 16.0 0.00 0.00 0.00 25 1029.3
20210617150620 76 301 9.0 15.0 0.00 0.00 0.00 22 1029.4
20210617150114 76 250 10.0 17.0 0.00 0.00 0.00 20 1029.3
20210617145608 76 238 10.0 18.0 0.00 0.00 0.00 21 1029.4
20210617145102 76 274 11.0 18.0 0.00 0.00 0.00 20 1029.4
20210617144556 75 290 10.0 17.0 0.00 0.00 0.00 20 1029.3
20210617144050 75 313 9.0 15.0 0.00 0.00 0.00 23 1029.1
20210617143543 75 292 10.0 17.0 0.00 0.00 0.00 23 1029.1
20210617143037 74 309 9.0 14.0 0.00 0.00 0.00 22 1029.3
20210617142532 74 292 9.0 14.0 0.00 0.00 0.00 22 1029.3
20210617142026 73 296 9.0 15.0 0.00 0.00 0.00 21 1029.3
20210617141519 73 277 9.0 15.0 0.00 0.00 0.00 20 1029.3
20210617141014 72 282 10.0 15.0 0.00 0.00 0.00 22 1029.3
20210617140508 71 254 10.0 15.0 0.00 0.00 0.00 22 1029.3
20210617140001 70 263 10.0 16.0 0.00 0.00 0.00 24 1029.1
20210617135456 70 296 11.0 16.0 0.00 0.00 0.00 23 1029.1
20210617134950 70 290 11.0 18.0 0.00 0.00 0.00 23 1029.3
20210617134445 69 265 12.0 18.0 0.00 0.00 0.00 23 1029.3
20210617133938 69 252 11.0 17.0 0.00 0.00 0.00 24 1029.1
20210617133432 69 254 10.0 16.0 0.00 0.00 0.00 24 1029.1
20210617132926 69 285 10.0 16.0 0.00 0.00 0.00 24 1029.0
20210617132420 68 264 11.0 17.0 0.00 0.00 0.00 24 1029.0
20210617131920 68 252 10.0 17.0 0.00 0.00 0.00 24 1029.0
20210617131421 69 265 10.0 16.0 0.00 0.00 0.00 25 1029.0
20210617130919 69 269 11.0 16.0 0.00 0.00 0.00 23 1029.0
20210617130417 69 278 12.0 17.0 0.00 0.00 0.00 24 1029.0
20210617125916 68 275 11.0 19.0 0.00 0.00 0.00 23 1029.0
20210617125414 68 268 11.0 19.0 0.00 0.00 0.00 24 1029.0
20210617124914 68 232 11.0 17.0 0.00 0.00 0.00 23 1029.0
20210617124417 68 228 11.0 17.0 0.00 0.00 0.00 24 1029.0
20210617123912 68 265 12.0 21.0 0.00 0.00 0.00 23 1028.9
20210617123413 68 252 12.0 21.0 0.00 0.00 0.00 23 1028.9
20210617122913 68 293 12.0 19.0 0.00 0.00 0.00 23 1028.9
20210617122412 68 248 13.0 19.0 0.00 0.00 0.00 23 1028.9
20210617121912 67 292 13.0 20.0 0.00 0.00 0.00 22 1028.9
20210617121414 67 277 13.0 20.0 0.00 0.00 0.00 22 1028.7
20210617120908 67 238 13.0 20.0 0.00 0.00 0.00 22 1028.6
20210617120408 67 263 13.0 20.0 0.00 0.00 0.00 22 1028.6
20210617115909 67 265 13.0 20.0 0.00 0.00 0.00 22 1028.6
20210617115408 67 238 12.0 19.0 0.00 0.00 0.00 22 1028.6
20210617114909 68 265 12.0 19.0 0.00 0.00 0.00 22 1028.5
20210617114410 68 279 13.0 23.0 0.00 0.00 0.00 21 1028.3
20210617113910 68 256 13.0 23.0 0.00 0.00 0.00 21 1028.3
20210617113408 68 247 12.0 18.0 0.00 0.00 0.00 21 1028.3
20210617112909 68 242 12.0 19.0 0.00 0.00 0.00 21 1028.3
20210617112404 68 237 12.0 19.0 0.00 0.00 0.00 21 1028.3
20210617111905 68 256 13.0 20.0 0.00 0.00 0.00 21 1028.2
20210617111402 68 259 13.0 20.0 0.00 0.00 0.00 21 1028.1
20210617110903 68 257 13.0 20.0 0.00 0.00 0.00 20 1028.2
20210617110402 69 249 13.0 20.0 0.00 0.00 0.00 20 1028.2
20210617105902 69 259 13.0 23.0 0.00 0.00 0.00 20 1028.2
20210617105404 69 252 13.0 23.0 0.00 0.00 0.00 20 1028.1
20210617104902 69 254 12.0 19.0 0.00 0.00 0.00 20 1028.1
20210617104404 68 290 12.0 19.0 0.00 0.00 0.00 20 1028.0
20210617103904 68 250 12.0 19.0 0.00 0.00 0.00 20 1028.0
20210617103407 69 254 12.0 19.0 0.00 0.00 0.00 20 1027.8
20210617102904 69 289 11.0 17.0 0.00 0.00 0.00 20 1027.8
20210617102404 68 273 11.0 17.0 0.00 0.00 0.00 20 1028.0
20210617101857 68 245 11.0 15.0 0.00 0.00 0.00 20 1028.0
20210617101351 68 263 10.0 15.0 0.00 0.00 0.00 20 1028.0
20210617100844 68 242 11.0 16.0 0.00 0.00 0.00 20 1028.0
20210617100339 68 261 11.0 17.0 0.00 0.00 0.00 20 1028.0
20210617095834 68 264 10.0 17.0 0.00 0.00 0.00 20 1028.1
20210617095327 68 239 9.0 14.0 0.00 0.00 0.00 20 1028.0
20210617094821 68 261 10.0 14.0 0.00 0.00 0.00 21 1028.0
20210617094316 68 242 9.0 14.0 0.00 0.00 0.00 21 1028.1
20210617093808 69 238 9.0 14.0 0.00 0.00 0.00 21 1028.1
20210617093315 69 225 9.0 15.0 0.00 0.00 0.00 21 1028.1
20210617092755 69 246 9.0 15.0 0.00 0.00 0.00 20 1028.1
20210617092248 69 244 9.0 13.0 0.00 0.00 0.00 21 1028.1